JBU1997 KACY-KBOS

Flight info

Callsign JBU1997
Flight time 0h 46m
Altitude 35000
Route BRIGS Q439 RIFLE ROBUC ROBUC3
Aircraft A20N/M-SDE2E3FGHIRWXY/LB1

Departure

Time 2026-04-12 05:12
Airport Atlantic City International Airport (KACY)

Arrival

Time 2026-04-12 05:58
Airport Boston Logan International Airport (KBOS)
Time Latitude Longitude Altitude Speed Heading
2026-04-12 04:38 39.45167 -74.57322 74 ft 0 kts 167°
2026-04-12 05:01 39.45180 -74.57327 57 ft 2 kts 159°
2026-04-12 05:01 39.45194 -74.57338 78 ft 2 kts 126°
2026-04-12 05:01 39.45199 -74.57358 74 ft 2 kts 68°
2026-04-12 05:01 39.45195 -74.57368 68 ft 0 kts 51°
2026-04-12 05:04 39.45198 -74.57363 74 ft 3 kts 49°
2026-04-12 05:04 39.45219 -74.57340 67 ft 8 kts 37°
2026-04-12 05:05 39.45244 -74.57312 71 ft 12 kts 47°
2026-04-12 05:06 39.45288 -74.57236 64 ft 19 kts 53°
2026-04-12 05:06 39.45378 -74.57173 73 ft 14 kts 58°
2026-04-12 05:06 39.45382 -74.57137 74 ft 0 kts 94°
2026-04-12 05:07 39.45382 -74.57125 71 ft 4 kts 85°
2026-04-12 05:07 39.45413 -74.57076 74 ft 9 kts 34°
2026-04-12 05:07 39.45409 -74.57014 74 ft 10 kts 118°
2026-04-12 05:07 39.45361 -74.56893 60 ft 20 kts 118°
2026-04-12 05:08 39.45290 -74.56720 68 ft 23 kts 120°
2026-04-12 05:08 39.45211 -74.56528 69 ft 25 kts 117°
2026-04-12 05:08 39.45134 -74.56335 63 ft 23 kts 117°
2026-04-12 05:08 39.45062 -74.56169 62 ft 13 kts 117°
2026-04-12 05:09 39.45060 -74.56073 72 ft 9 kts 46°
2026-04-12 05:09 39.45066 -74.56067 69 ft 0 kts 28°
2026-04-12 05:10 39.45100 -74.56044 69 ft 9 kts 27°
2026-04-12 05:10 39.45141 -74.56032 67 ft 8 kts 346°
2026-04-12 05:10 39.45197 -74.56124 69 ft 12 kts 298°
2026-04-12 05:11 39.45245 -74.56240 62 ft 25 kts 298°
2026-04-12 05:11 39.45352 -74.56500 69 ft 73 kts 298°
2026-04-12 05:11 39.45690 -74.57322 70 ft 131 kts 297°
2026-04-12 05:11 39.46203 -74.58507 214 ft 163 kts 300°
2026-04-12 05:12 39.46750 -74.59796 832 ft 169 kts 296°
2026-04-12 05:12 39.47332 -74.61205 1377 ft 187 kts 291°
2026-04-12 05:12 39.47982 -74.62783 1870 ft 212 kts 298°
2026-04-12 05:12 39.49104 -74.64202 2508 ft 244 kts 323°
2026-04-12 05:13 39.50806 -74.64836 3374 ft 267 kts 352°
2026-04-12 05:13 39.52665 -74.64417 4500 ft 278 kts 19°
2026-04-12 05:13 39.54254 -74.62916 5580 ft 291 kts 46°
2026-04-12 05:13 39.55228 -74.60582 6569 ft 301 kts 74°
2026-04-12 05:14 39.55342 -74.57873 7580 ft 304 kts 101°
2026-04-12 05:14 39.54728 -74.55278 8557 ft 307 kts 111°
2026-04-12 05:14 39.54024 -74.52647 9548 ft 312 kts 107°
2026-04-12 05:14 39.53531 -74.49875 10451 ft 320 kts 99°
2026-04-12 05:15 39.53248 -74.46919 10894 ft 342 kts 94°
2026-04-12 05:15 39.53106 -74.43731 11285 ft 362 kts 91°
2026-04-12 05:15 39.53027 -74.40471 11927 ft 367 kts 91°
2026-04-12 05:15 39.52960 -74.37138 12743 ft 372 kts 91°
2026-04-12 05:16 39.52886 -74.33771 13638 ft 376 kts 91°
2026-04-12 05:16 39.52806 -74.30409 14455 ft 381 kts 91°
2026-04-12 05:16 39.52716 -74.26958 15189 ft 386 kts 91°
2026-04-12 05:16 39.52622 -74.23459 15932 ft 391 kts 91°
2026-04-12 05:17 39.52525 -74.19918 16658 ft 396 kts 92°
2026-04-12 05:17 39.52562 -74.16335 17377 ft 400 kts 81°
2026-04-12 05:17 39.53346 -74.12868 18069 ft 402 kts 62°
2026-04-12 05:17 39.54881 -74.09837 18744 ft 403 kts 47°
2026-04-12 05:18 39.56660 -74.07061 19351 ft 407 kts 46°
2026-04-12 05:18 39.58492 -74.04238 19969 ft 411 kts 46°
2026-04-12 05:18 39.60349 -74.01367 20591 ft 415 kts 46°
2026-04-12 05:18 39.62211 -73.98469 21207 ft 420 kts 46°
2026-04-12 05:19 39.64088 -73.95531 21817 ft 424 kts 46°
2026-04-12 05:19 39.65958 -73.92593 22403 ft 429 kts 46°
2026-04-12 05:19 39.67877 -73.89571 23014 ft 433 kts 46°
2026-04-12 05:19 39.69807 -73.86529 23595 ft 437 kts 46°
2026-04-12 05:20 39.71729 -73.83496 24147 ft 442 kts 46°
2026-04-12 05:20 39.73691 -73.80399 24664 ft 444 kts 46°
2026-04-12 05:20 39.75663 -73.77282 25210 ft 446 kts 46°
2026-04-12 05:20 39.77645 -73.74146 25706 ft 450 kts 46°
2026-04-12 05:21 39.79644 -73.70982 26196 ft 452 kts 46°
2026-04-12 05:21 39.81624 -73.67844 26669 ft 455 kts 46°
2026-04-12 05:21 39.83639 -73.64649 27164 ft 458 kts 46°
2026-04-12 05:21 39.85669 -73.61425 27619 ft 461 kts 46°
2026-04-12 05:22 39.87711 -73.58180 28058 ft 464 kts 46°
2026-04-12 05:22 39.89786 -73.54931 28493 ft 465 kts 43°
2026-04-12 05:22 39.92049 -73.52022 28922 ft 462 kts 37°
2026-04-12 05:22 39.94459 -73.49198 29324 ft 465 kts 37°
2026-04-12 05:23 39.96875 -73.46347 29711 ft 468 kts 37°
2026-04-12 05:23 39.99295 -73.43480 30100 ft 471 kts 37°
2026-04-12 05:23 40.01729 -73.40594 30517 ft 473 kts 37°
2026-04-12 05:23 40.04171 -73.37697 30854 ft 475 kts 37°
2026-04-12 05:24 40.06589 -73.34824 31195 ft 477 kts 37°
2026-04-12 05:24 40.09056 -73.31893 31565 ft 478 kts 37°
2026-04-12 05:24 40.11514 -73.28967 32001 ft 477 kts 37°
2026-04-12 05:24 40.13971 -73.26039 32481 ft 476 kts 37°
2026-04-12 05:25 40.16413 -73.23126 32932 ft 475 kts 37°
2026-04-12 05:25 40.18853 -73.20212 33383 ft 473 kts 37°
2026-04-12 05:25 40.21252 -73.17344 33849 ft 471 kts 36°
2026-04-12 05:25 40.23668 -73.14453 34284 ft 470 kts 36°
2026-04-12 05:26 40.26087 -73.11557 34648 ft 469 kts 36°
2026-04-12 05:26 40.28495 -73.08674 34964 ft 469 kts 36°
2026-04-12 05:26 40.30907 -73.05784 35255 ft 469 kts 36°
2026-04-12 05:27 40.35714 -73.00014 35421 ft 467 kts 36°
2026-04-12 05:27 40.40478 -72.94286 35443 ft 467 kts 36°
2026-04-12 05:28 40.45265 -72.88517 35438 ft 467 kts 36°
2026-04-12 05:28 40.50050 -72.82739 35440 ft 466 kts 37°
2026-04-12 05:29 40.54799 -72.76903 35444 ft 468 kts 38°
2026-04-12 05:29 40.59380 -72.70863 35447 ft 469 kts 39°
2026-04-12 05:30 40.63989 -72.64778 35459 ft 469 kts 39°
2026-04-12 05:30 40.68642 -72.58738 35463 ft 466 kts 35°
2026-04-12 05:31 40.73703 -72.53558 35465 ft 461 kts 30°
2026-04-12 05:31 40.78843 -72.48458 35470 ft 461 kts 30°
2026-04-12 05:32 40.83975 -72.43354 35463 ft 461 kts 30°
2026-04-12 05:32 40.89072 -72.38278 35461 ft 461 kts 30°
2026-04-12 05:33 40.94195 -72.33169 35463 ft 460 kts 30°
2026-04-12 05:33 40.99317 -72.28051 35459 ft 460 kts 30°
2026-04-12 05:34 41.04387 -72.22975 35455 ft 459 kts 30°
2026-04-12 05:34 41.09489 -72.17856 35453 ft 459 kts 30°
2026-04-12 05:35 41.14576 -72.12742 35434 ft 456 kts 30°
2026-04-12 05:35 41.19574 -72.07702 35005 ft 452 kts 30°
2026-04-12 05:35 41.22087 -72.05169 34329 ft 453 kts 30°
2026-04-12 05:36 41.24613 -72.02623 33320 ft 458 kts 30°
2026-04-12 05:36 41.27151 -72.00066 32157 ft 467 kts 30°
2026-04-12 05:36 41.29758 -71.97434 30781 ft 472 kts 30°
2026-04-12 05:36 41.32401 -71.94760 29153 ft 478 kts 31°
2026-04-12 05:37 41.35036 -71.92085 27967 ft 474 kts 31°
2026-04-12 05:37 41.37609 -71.89465 26950 ft 467 kts 31°
2026-04-12 05:37 41.40176 -71.86851 25971 ft 460 kts 31°
2026-04-12 05:37 41.42708 -71.84274 24967 ft 455 kts 31°
2026-04-12 05:38 41.45207 -71.81731 24011 ft 449 kts 31°
2026-04-12 05:38 41.47675 -71.79217 22962 ft 443 kts 31°
2026-04-12 05:38 41.50108 -71.76734 22022 ft 435 kts 31°
2026-04-12 05:38 41.52499 -71.74291 21058 ft 428 kts 31°
2026-04-12 05:39 41.54820 -71.71919 20140 ft 422 kts 31°
2026-04-12 05:39 41.57124 -71.69548 19563 ft 407 kts 30°
2026-04-12 05:39 41.59303 -71.67300 19315 ft 383 kts 29°
2026-04-12 05:39 41.61354 -71.65185 19111 ft 360 kts 28°
2026-04-12 05:40 41.63273 -71.63211 18824 ft 344 kts 28°
2026-04-12 05:40 41.65162 -71.61281 18151 ft 339 kts 28°
2026-04-12 05:40 41.66964 -71.59224 17416 ft 345 kts 38°
2026-04-12 05:40 41.68394 -71.56597 16728 ft 355 kts 53°
2026-04-12 05:41 41.69365 -71.53542 16158 ft 355 kts 61°
2026-04-12 05:41 41.70227 -71.50528 15739 ft 345 kts 60°
2026-04-12 05:41 41.71079 -71.47577 15327 ft 335 kts 60°
2026-04-12 05:41 41.71914 -71.44704 14925 ft 326 kts 60°
2026-04-12 05:42 41.72842 -71.42018 14669 ft 305 kts 50°
2026-04-12 05:42 41.73953 -71.39499 14592 ft 328 kts 50°
2026-04-12 05:42 41.75134 -71.36798 14497 ft 338 kts 51°
2026-04-12 05:43 41.77440 -71.31371 14438 ft 337 kts 51°
2026-04-12 05:43 41.78610 -71.28613 14427 ft 339 kts 51°
2026-04-12 05:43 41.79761 -71.25903 14429 ft 337 kts 51°
2026-04-12 05:43 41.80924 -71.23167 14425 ft 337 kts 51°
2026-04-12 05:44 41.82089 -71.20429 14429 ft 337 kts 51°
2026-04-12 05:44 41.83266 -71.17712 14430 ft 337 kts 50°
2026-04-12 05:44 41.84467 -71.15018 14428 ft 336 kts 50°
2026-04-12 05:44 41.85671 -71.12332 14433 ft 336 kts 50°
2026-04-12 05:45 41.86877 -71.09634 14434 ft 336 kts 50°
2026-04-12 05:45 41.88066 -71.06964 14433 ft 337 kts 50°
2026-04-12 05:45 41.89267 -71.04255 14433 ft 337 kts 50°
2026-04-12 05:45 41.90466 -71.01548 14434 ft 337 kts 50°
2026-04-12 05:46 41.91661 -70.98841 14414 ft 334 kts 50°
2026-04-12 05:46 41.92576 -70.96806 14370 ft 326 kts 47°
2026-04-12 05:46 41.93788 -70.94433 14240 ft 314 kts 46°
2026-04-12 05:46 41.95017 -70.92037 13725 ft 309 kts 46°
2026-04-12 05:47 41.96237 -70.89671 13059 ft 309 kts 46°
2026-04-12 05:47 41.97483 -70.87265 12107 ft 317 kts 47°
2026-04-12 05:47 41.98762 -70.84795 11111 ft 326 kts 48°
2026-04-12 05:47 42.00074 -70.82252 10020 ft 335 kts 49°
2026-04-12 05:48 42.01516 -70.79798 8728 ft 340 kts 41°
2026-04-12 05:48 42.03225 -70.77536 7278 ft 351 kts 40°
2026-04-12 05:48 42.05004 -70.75200 5878 ft 359 kts 41°
2026-04-12 05:48 42.06769 -70.72855 4982 ft 350 kts 41°
2026-04-12 05:49 42.08433 -70.70624 4674 ft 325 kts 41°
2026-04-12 05:49 42.09972 -70.68552 4433 ft 301 kts 40°
2026-04-12 05:49 42.11527 -70.66843 4223 ft 275 kts 27°
2026-04-12 05:49 42.13214 -70.65926 4026 ft 251 kts
2026-04-12 05:50 42.14896 -70.65881 3707 ft 234 kts 347°
2026-04-12 05:50 42.16408 -70.66602 3616 ft 240 kts 330°
2026-04-12 05:50 42.17698 -70.67980 3506 ft 234 kts 313°
2026-04-12 05:50 42.18594 -70.69835 3442 ft 239 kts 300°
2026-04-12 05:51 42.19363 -70.71820 3438 ft 237 kts 301°
2026-04-12 05:51 42.20111 -70.73725 3434 ft 222 kts 301°
2026-04-12 05:51 42.20813 -70.75501 3436 ft 207 kts 301°
2026-04-12 05:51 42.21467 -70.77146 3432 ft 193 kts 302°
2026-04-12 05:52 42.22082 -70.78691 3428 ft 179 kts 302°
2026-04-12 05:52 42.22672 -70.80163 3433 ft 183 kts 302°
2026-04-12 05:52 42.23270 -70.81658 3432 ft 180 kts 302°
2026-04-12 05:52 42.23898 -70.83160 3419 ft 192 kts 307°
2026-04-12 05:53 42.24715 -70.84597 3181 ft 191 kts 314°
2026-04-12 05:53 42.25588 -70.85856 2902 ft 176 kts 318°
2026-04-12 05:53 42.26429 -70.86986 2650 ft 168 kts 318°
2026-04-12 05:53 42.27239 -70.88081 2453 ft 157 kts 319°
2026-04-12 05:54 42.27973 -70.89072 2217 ft 142 kts 319°
2026-04-12 05:54 42.28640 -70.89970 2012 ft 129 kts 320°
2026-04-12 05:54 42.29242 -70.90780 2074 ft 124 kts 320°
2026-04-12 05:54 42.29895 -70.91644 2350 ft 144 kts 320°
2026-04-12 05:55 42.30549 -70.92577 2434 ft 122 kts 317°
2026-04-12 05:55 42.31136 -70.93322 2133 ft 115 kts 321°
2026-04-12 05:55 42.31699 -70.94091 1766 ft 115 kts 321°
2026-04-12 05:55 42.32270 -70.94856 1403 ft 117 kts 319°
2026-04-12 05:56 42.32846 -70.95641 1001 ft 120 kts 318°
2026-04-12 05:56 42.33432 -70.96452 658 ft 120 kts 317°
2026-04-12 05:56 42.33995 -70.97198 501 ft 106 kts 317°
2026-04-12 05:56 42.34504 -70.97886 270 ft 101 kts 316°
2026-04-12 05:57 42.35028 -70.98561 292 ft 111 kts 316°
2026-04-12 05:57 42.35626 -70.99366 58 ft 122 kts 316°
2026-04-12 05:57 42.36000 -70.99869 28 ft 103 kts 313°
2026-04-12 05:57 42.36432 -71.00451 27 ft 65 kts 314°
2026-04-12 05:58 42.36602 -71.00831 29 ft 34 kts 288°
2026-04-12 05:58 42.36620 -71.00916 27 ft 0 kts 282°
2026-04-12 05:58 42.36620 -71.00917 27 ft 2 kts 282°
2026-04-12 05:59 42.36636 -71.01019 27 ft 17 kts 288°